www.pogodaiklimat.ru

Погода и климат >> Архив погоды >> Южная Африка >> Кейптаун


ПОГОДА в Кейптауне

  • Прогноз погоды в Кейптауне
  • Монитор погоды в Кейптауне

АРХИВ ПОГОДЫ в Кейптауне

Время (UTC), дата Ветер
(напр.,м/с)
 
Видим.   Явления Облачность Т
(С)
Тd
(С)
f
(%)
Тe
(С)
Тes
(С)
Комфортность P
(гПа)
Po
(гПа)
Тmin
(С)
Tmax
(С)
R
(мм)
R24
(мм)
S
(см)
09 11.07 ЮЗ 2 н/о н/о +14.9 +11.3 79 +15 +15 1006.8 +11.1 +14.9
12 11.07 ЮЗ 5 н/о н/о +16.4 +10.3 67 +15 +15 1006.5 +11.1 +16.4
15 11.07 З 4 н/о н/о +15.5 +9.0 65 +15 +15 1007.8 +15.5 +16.9
18 11.07 штиль 0 н/о н/о +15.4 +9.5 68 +15 +15 1009.6 +15.3 +16.9
21 11.07 штиль 0 н/о н/о +15.0 +10.8 76 +15 +15 1011.2 +14.7 +16.9
00 12.07 В 1 н/о н/о +14.1 +10.7 80 +14 +14 1012.0 +13.9 +16.9
03 12.07 Ю 4 н/о н/о +14.0 +7.5 65 +13 +13 1012.0 +13.7 +16.9
06 12.07 Ю 3 н/о н/о +14.0 +6.4 60 +13 +13 1012.2 +13.7
09 12.07 ЮВ 3 н/о н/о +17.2 +8.9 58 +17 +17 1012.4 +13.7 +17.2
12 12.07 ЮВ 3 н/о н/о +16.7 +7.9 56 +17 +17 1010.7 +13.7 +17.2
15 12.07 ЮВ 3 н/о н/о +16.5 +8.3 58 +16 +16 1010.0 +16.4 +17.2
18 12.07 Ю 1 н/о н/о +14.1 +8.1 67 +15 +15 1009.7 +14.1 +17.2
21 12.07 штиль 0 н/о н/о +12.7 +7.8 72 +12 +12 1010.4 +12.7 +17.2
00 13.07 штиль 0 н/о н/о +12.7 +7.2 69 +12 +12 1009.8 +12.3 +17.2
09 13.07 СЗ 2 н/о н/о +16.9 +11.2 69 +17 +17 1011.4 +11.3 +16.9
12 13.07 С 2 н/о н/о +19.5 +11.6 60 +22 +22 комфорт 1009.3 +11.3 +19.7
15 13.07 З 2 н/о н/о +17.4 +10.6 64 +18 +18 1008.3 +17.2 +19.7
18 13.07 штиль 0 н/о н/о +13.6 +9.2 75 +13 +13 1007.9 +13.5 +19.7
21 13.07 штиль 0 н/о н/о +12.5 +7.8 73 +12 +12 1007.5 +12.5 +19.7
00 14.07 ЮЗ 3 н/о н/о +14.4 +8.1 66 +14 +14 1007.5 +11.8 +19.7
03 14.07 З 2 н/о н/о +13.8 +6.9 63 +13 +13 1007.5 +11.8 +19.7
06 14.07 З 1 н/о н/о +12.2 +10.4 89 +12 +12 1008.7 +10.9
09 14.07 З 2 н/о н/о +14.6 +11.4 81 +14 +14 1009.8 +10.9 +14.7
12 14.07 СЗ 3 н/о н/о +15.1 +10.5 74 +14 +14 1008.7 +10.9 +15.6
15 14.07 З 2 н/о н/о +15.4 +8.4 63 +16 +16 1008.2 +15.1 +16.7
18 14.07 ЮЗ 3 н/о н/о +12.9 +8.2 73 +12 +12 1009.4 +12.9 +16.7
21 14.07 З 2 н/о н/о +12.3 +8.4 77 +11 +11 1009.8 +12.3 +16.7
00 15.07 З 2 н/о н/о +13.2 +8.9 75 +13 +13 1010.3 +12.2 +16.7
06 15.07 ЮЗ 1 н/о н/о +10.8 +8.2 84 +10 +10 1010.6 +10.6
09 15.07 С 1 н/о н/о +15.4 +10.4 72 +16 +16 1011.8 +10.6 +15.4
12 15.07 СВ 2 н/о н/о +18.5 +11.4 63 +19 +19 1009.9 +10.6 +18.7
15 15.07 ЮЗ 4 н/о н/о +15.3 +10.9 75 +14 +14 1008.6 +15.3 +18.7
18 15.07 штиль 0 н/о н/о +13.5 +10.3 81 +13 +13 1008.7 +13.5 +18.7
21 15.07 штиль 0 н/о н/о +12.4 +9.4 82 +12 +12 1008.5 +12.4 +18.7
00 16.07 штиль 0 н/о н/о +11.9 +9.4 85 +11 +11 1007.4 +11.9 +18.7
03 16.07 штиль 0 н/о н/о +11.1 +8.1 82 +11 +11 1005.9 +11.1 +18.7
06 16.07 В 1 н/о н/о +11.7 +4.0 59 +12 +12 1006.4 +10.3
09 16.07 З 3 н/о н/о +14.9 +11.5 80 +14 +14 1008.1 +10.3 +15.3
12 16.07 СЗ 3 н/о н/о +16.7 +11.6 72 +16 +16 1007.3 +10.3 +17.1
15 16.07 ЮЗ 2 н/о н/о +15.8 +10.8 72 +16 +16 1007.4 +15.8 +17.1
18 16.07 ЮЗ 1 н/о н/о +14.2 +11.0 81 +15 +15 1007.3 +14.2 +17.1
21 16.07 СЗ 2 н/о н/о +14.0 +11.3 84 +14 +14 1008.0 +13.7 +17.1
00 17.07 З 2 н/о н/о +13.0 +10.7 86 +12 +12 1008.1 +13.0 +17.1
03 17.07 СВ 2 н/о н/о +12.0 +9.9 87 +11 +11 1008.1 +11.5 +17.1
06 17.07 СЗ 1 н/о н/о +12.5 +9.8 84 +12 +12 1009.1 +11.5
09 17.07 СЗ 3 н/о н/о +13.5 +9.7 78 +13 +13 1010.5 +11.5 +13.5
12 17.07 СЗ 2 н/о н/о +14.8 +10.2 74 +15 +15 1008.5 +11.5 +14.8
15 17.07 С 3 н/о н/о +14.0 +10.6 80 +13 +13 1008.4 +13.9 +14.9
18 17.07 СЗ 3 н/о н/о +14.1 +10.5 79 +13 +13 1009.1 +13.9 +14.9
21 17.07 Ю 2 н/о н/о +14.2 +11.0 81 +14 +14 1008.9 +13.9 +14.9
00 18.07 ЮЗ 2 н/о н/о +14.2 +11.5 84 +14 +14 1008.6 +13.9 +14.9
03 18.07 ЮЗ 2 н/о н/о +14.1 +11.8 86 +14 +14 1007.3 +13.9 +14.9
06 18.07 СЗ 3 н/о н/о +13.9 +11.7 87 +13 +13 1007.5 +13.8

 

Местоположение метеостанции Кейптаун (Южная Африка): широта -33.94 долгота 18.41 высота над уровнем моря 97 м.

В архиве по умолчанию представлена погода в Кейптауне за последнюю неделю. Архивные данные за месяц целиком и за предыдущие месяцы, начиная с января 2011 года, Вы можете получить, выбрав интересующий диапазон дат из раскрывающегося списка и нажав кнопку "Ввод!".


*Определитесь, кто Вы:
робот инопланетянин человек

Внимание! Время в таблицах - всемирное. Для получения местного времени необходимо прибавить поправку, которая равна 2 ч.

Смотрите также архив погоды в соседних городах и на ближайших метеорологических станциях:

Погода в Кейптаун порту (Южная Африка) (5 км)
Погода в Йестерпланте (Южная Африка) (9 км)
Погода на Роббенэйланде (Южная Африка) (16 км)
Погода в Кейптауне аэропорту (Южная Африка) (18 км)
Погода в Кейптауне аэропорту АМС (Южная Африка) (18 км)
Погода на Слангкопе (Южная Африка) (25 км)
Погода в Странде (Южная Африка) (46 км)
Погода на Кейп-Пойнт (Южная Африка) (46 км)
Погода в Парле (Южная Африка) (57 км)
Погода в Малмсбери (Южная Африка) (61 км)

Пояснения к столбцам:

Ветер - указаны скорость ветра в м/с - средняя за 10 мин, порывы в срок и между сроками (в фигурных скобках) и направление, откуда дует ветер: С - северный, СВ - северо-восточный, В - восточный, ЮВ - юго-восточный, Ю - южный, ЮЗ - юго-западный, З - западный, СЗ - северо-западный.
Видимость - горизонтальная дальность видимости в метрах или километрах. При видимости от 1 до 10 км при отсутствии осадков обычно наблюдается дымка, при ухудшении видимости до 1 км и менее - туман. В сухую погоду видимость может ухудшаться дымом, пылью или мглою.
Явления - указаны атмосферные явления, наблюдавшиеся в срок или в последний час перед сроком; фигурными скобками обозначены явления, наблюдавшиеся между сроками (за 1-3 часа до срока); квадратными скобками обозначены град или гололедные отложения с указанием их диаметра в мм.
Облачность - указаны через наклонную черту общая и нижняя облачность в баллах и высота нижней границы облаков в метрах; квадратными скобками обозначены формы облаков: Ci - перистые, Cs - перисто-слоистые, Cc - перисто-кучевые, Ac - высококучевые, As - высокослоистые, Sc - слоисто-кучевые, Ns - слоисто-дождевые, Cu - кучевые, Cb - кучево-дождевые. Подробнее классификацию облаков см. в Атласе облаков (PDF).
T - Температура воздуха - температура, измеренная на высоте 2 м над землей.
Td - Температура точки росы - температура, при понижении до которой содержащийся в воздухе водяной пар достигнет насыщения.
f - Относительная влажность воздуха - влажноcть воздуха, измеренная на высоте 2 м над землей.
Te - Эффективная температура - температура, которую ощущает одетый по сезону человек в тени. Характеристика душности погоды. При расчете учитывается влияние влажности воздуха и скорости ветра на теплоощущения человека.
Tes - Эффективная температура на солнце - температура, которую ощущает человек, с поправкой на солнечный нагрев. Характеристика знойности погоды. Зависит от высоты солнца над горизонтом, облачности и скорости ветра. Ночью, в пасмурную погоду, а также при ветре 12 м/с и более поправка равна нулю.
P - Атмосферное давление - приведенное к уровню моря атмосферное давление.
Po - Атмосферное давление - измеренное на уровне метеостанции атмосферное давление.
Tmin - Минимальная температура - минимум температуры воздуха на высоте 2 м над землей.
Tmax - Максимальная температура - максимум температуры воздуха на высоте 2 м над землей.
R - Количество осадков - Количество выпавших осадков за период времени, мм. При наведении курсора мыши на число - период времени, за который выпало указанное количество осадков.
R24 - Количество осадков - Количество выпавших осадков за 24 часа, мм.
S - Снежный покров - Высота снежного покрова, см. При наведении курсора мыши на число - состояние снежного покрова и степень покрытия местности в баллах.